Weather in Verhniy Ufaley

Russia / Chelyabinsk Oblast     56°02′55″N   60°13′55″E
temp.,
°C
wind,
m/s
gust,
m/s
humid.,
%
clouds,
%
prec.,
mm/h
press.,
hPa
HPBL,
m
17 june, thu
thu1723:00+17ssw2865100 0.3 1011134
02:00+17sw21268100 0.0 1011423
05:00+16sw21274100 0.1 1009308
08:00+21wsw41063100 0.0 1008519
11:00+25wsw584890 0.0 10061159
14:00+25wnw5751100 0.1 10051841
17:00+22wnw686889 0.2 10051020
20:00+15nw4118093 0.8 1008596
18 june, fri
fri1823:00+14nnw412605 0.8 1009613
02:00+12nw4115860 0.0 1010507
05:00+10nnw311685 0.0 1012392
08:00+13n58512 0.0 1014858
11:00+15nne575527 0.2 10161805
14:00+17n483689 0.1 10162534
17:00+17n573665 0.1 10172247
20:00+15nne254918 0.0 1018505
19 june, sat
sat1923:00+10wnw226557 0.0 102035
02:00+7wnw227251 0.0 102240
05:00+7w237537 0.0 102267
08:00+13wnw4105697 0.0 1022674
11:00+12w51076100 0.1 1021828
14:00+15wnw7127665 0.6 1019936
17:00+19w6116165 0.6 10161447
20:00+14w51387100 0.1 1016721
20 june, sun
sun2023:00+13w41199100 0.4 1015328
02:00+14w399984 0.4 1013388
05:00+15wnw5149873 1.7 1012659
08:00+16nw61393100 0.0 1012975
11:00+18nw6127588 0.1 10131087
14:00+23nw7123239 0.0 10122066
17:00+23nnw612335 0.0 10122146
20:00+18nnw611410 0.0 10151330
21 june, mon
mon2123:00+13nw413510 0.0 1017550
02:00+11nw310594 0.0 1018351
05:00+7wnw22745 0.0 101947
08:00+14nnw49465 0.0 1020917
11:00+18nnw58335 0.0 10181640
14:00+19nw58356 0.0 10181351
17:00+22nnw5104025 0.0 10161877
20:00+18nnw375766 0.0 1017412